Home > Time Zones > World Clock > Weather > U.S.A. > Hilo > Past weeks

Flag for U.S.A. Weather past 2 weeks in Hilo, Hawaii, U.S.A.

Now
73 °F

Mostly cloudy.


Feels Like: 76 °F
Forecast: 67 / 75 °F
Wind: 12 mph from North

Location: Hilo International Airport

Current Time: May 24, 2015 at 4:19:37 PM

Latest Report: May 24, 2015 at 4:03 PM


Visibility: 10 mi

Pressure: 30.00 "Hg

Humidity: 69%

Dew point: 63 °F

Location of HiloLocation

Historic Weather in Hilo — Graph

°F

Hilo temperature yesterday

Maximum temperature yesterday: 80 °F (at 10:53 AM)
Minimum temperature yesterday: 68 °F (at 5:53 AM)
Average temperature yesterday: 73 °F

Past Weeks' High & Low Weather Summary

 TemperatureHumidityPressure
High83 °F (May 22, 10:53 AM)100% (May 13, 5:19 AM)30.19 "Hg (May 13, 5:19 AM)
Low64 °F (May 15, 3:53 AM)53% (May 22, 10:53 AM)29.92 "Hg (May 22, 2:53 AM)
Average72 °F80%30.07 "Hg
* Reported May 9 2:53 PM — May 24 2:53 PM, Hilo, Weather by CustomWeather, © 2015

Note: Actual official high and low records may vary slightly from our data, if they occured in-between our weather recording intervals... More about our weather records

Advertising

Hilo weather history for previous 24 hours

 ConditionsComfort  
Time TempWeatherWind HumidityBarometerVisibility
2:53 PM
Sun, May 24
74 °FOvercast.12 mph67%30.00 "Hg10 mi
1:53 PM75 °FPartly sunny.9 mph66%30.01 "Hg10 mi
12:53 PM77 °FPartly sunny.13 mph64%30.02 "Hg10 mi
11:53 AM79 °FPartly sunny.13 mph60%30.04 "Hg10 mi
10:53 AM77 °FPartly sunny.9 mph64%30.05 "Hg10 mi
9:53 AM73 °FPartly sunny.14 mph74%30.06 "Hg10 mi
8:53 AM74 °FPartly sunny.7 mph71%30.06 "Hg10 mi
7:53 AM73 °FOvercast.7 mph74%30.06 "Hg10 mi
6:53 AM72 °FMore clouds than sun.10 mph76%30.05 "Hg10 mi
5:53 AM69 °FMore clouds than sun.6 mph81%30.04 "Hg10 mi
4:53 AM70 °FOvercast.7 mph79%30.03 "Hg10 mi
4:27 AM72 °FOvercast.9 mph78%30.04 "Hg10 mi
3:53 AM71 °FOvercast.12 mph81%30.03 "Hg10 mi
3:15 AM72 °FMostly cloudy.12 mph78%30.04 "Hg10 mi
3:04 AM72 °FMostly cloudy.10 mph73%30.04 "Hg10 mi
2:53 AM72 °FMostly cloudy.10 mph73%30.03 "Hg10 mi
2:21 AM70 °FMostly cloudy.No wind78%30.04 "Hg10 mi
1:53 AM70 °FMostly cloudy.No wind79%30.04 "Hg10 mi
12:53 AM71 °FOvercast.6 mph76%30.06 "Hg10 mi
11:53 PM
Sat, May 23
70 °FMostly cloudy.9 mph84%30.08 "Hg10 mi
11:31 PM70 °FMostly cloudy.14 mph88%30.09 "Hg10 mi
10:53 PM71 °FMostly cloudy.8 mph78%30.08 "Hg10 mi
9:53 PM72 °FMostly cloudy.12 mph73%30.08 "Hg10 mi
8:53 PM72 °FMostly cloudy.8 mph73%30.07 "Hg10 mi
7:53 PM72 °FOvercast.6 mph73%30.06 "Hg10 mi
6:53 PM71 °FOvercast.12 mph78%30.04 "Hg10 mi
5:53 PM71 °FFog.10 mph87%30.02 "Hg6 mi
5:04 PM72 °FLight rain. Fog.17 mph88%30.02 "Hg3 mi
4:58 PM71 °FRain. Fog.14 mph90%30.02 "Hg2 mi
4:09 PM72 °FLight rain. Fog.9 mph94%30.01 "Hg4 mi
Weather by CustomWeather, © 2015

See weather overviewHow to use our weather pages